TimeEDT,TemperatureF,Dew PointF,Humidity,Sea Level PressureIn,VisibilityMPH,Wind Direction,Wind SpeedMPH,Gust SpeedMPH,PrecipitationIn,Events,Conditions,WindDirDegrees,DateUTC
12:51 AM,71.1,66.9,87,29.96,10.0,Calm,Calm,-,N/A,,Clear,0,2013-06-24 04:51:00
1:51 AM,70.0,66.9,90,29.95,10.0,Calm,Calm,-,N/A,,Clear,0,2013-06-24 05:51:00
2:51 AM,72.0,68.0,87,29.94,10.0,Variable,3.5,-,N/A,,Clear,0,2013-06-24 06:51:00
3:51 AM,71.1,68.0,90,29.94,10.0,Calm,Calm,-,N/A,,Clear,0,2013-06-24 07:51:00
4:51 AM,71.1,68.0,90,29.93,10.0,Calm,Calm,-,N/A,,Clear,0,2013-06-24 08:51:00
5:51 AM,70.0,66.9,90,29.93,10.0,Calm,Calm,-,N/A,,Clear,0,2013-06-24 09:51:00
6:51 AM,73.9,68.0,82,29.93,10.0,Calm,Calm,-,N/A,,Clear,0,2013-06-24 10:51:00
7:51 AM,75.9,69.1,79,29.94,10.0,Variable,3.5,-,N/A,,Clear,0,2013-06-24 11:51:00
8:51 AM,80.1,69.1,69,29.93,10.0,Variable,3.5,-,N/A,,Clear,0,2013-06-24 12:51:00
9:51 AM,82.9,70.0,65,29.92,10.0,Variable,5.8,-,N/A,,Clear,0,2013-06-24 13:51:00
10:51 AM,84.9,68.0,57,29.92,10.0,WNW,9.2,19.6,N/A,,Clear,290,2013-06-24 14:51:00
11:51 AM,86.0,68.0,55,29.91,10.0,WNW,8.1,-,N/A,,Clear,300,2013-06-24 15:51:00
12:51 PM,88.0,68.0,51,29.91,10.0,WNW,8.1,-,N/A,,Clear,300,2013-06-24 16:51:00
1:51 PM,90.0,66.9,46,29.89,10.0,West,8.1,-,N/A,,Clear,260,2013-06-24 17:51:00
2:51 PM,91.0,66.9,45,29.88,10.0,WNW,9.2,-,N/A,,Clear,300,2013-06-24 18:51:00
3:51 PM,91.0,66.0,44,29.86,10.0,Variable,5.8,-,N/A,,Clear,0,2013-06-24 19:51:00
4:51 PM,91.9,66.0,42,29.84,10.0,Variable,3.5,-,N/A,,Clear,0,2013-06-24 20:51:00
5:51 PM,86.0,64.9,49,29.87,10.0,WNW,26.5,41.4,N/A,Thunderstorm,Squalls,300,2013-06-24 21:51:00
6:51 PM,70.0,66.9,90,29.88,9.0,SSW,3.5,-,0.12,Rain-Thunderstorm,Light Rain,210,2013-06-24 22:51:00
7:18 PM,69.8,66.2,88,29.88,10.0,NW,6.9,-,0.01,Rain,Light Rain,320,2013-06-24 23:18:00
7:51 PM,70.0,66.0,87,29.86,7.0,Calm,Calm,-,0.02,Rain,Light Rain,0,2013-06-24 23:51:00
8:51 PM,72.0,66.0,81,29.89,10.0,Calm,Calm,-,0.00,,Clear,0,2013-06-25 00:51:00
9:51 PM,71.1,66.9,87,29.91,10.0,Calm,Calm,-,0.01,,Partly Cloudy,0,2013-06-25 01:51:00
10:51 PM,71.1,66.9,87,29.90,10.0,Calm,Calm,-,N/A,,Mostly Cloudy,0,2013-06-25 02:51:00
11:51 PM,71.1,66.9,87,29.89,10.0,Variable,3.5,-,N/A,,Clear,0,2013-06-25 03:51:00